Weather History for Poteau, OK

Change the Weather History Date:

Friday, March 8, 2013

  Actual Average (KFSM) Record (KFSM)
Temperature  
Mean Temperature 52 °F 51 °F  
Max Temperature 64 °F 62 °F 83 °F (1925)
Min Temperature 41 °F 39 °F 13 °F (1996)
Degree Days  
Heating Degree Days 12 15  
Month to date heating degree days 125  
Since 1 July heating degree days 2798  
Cooling Degree Days 0 0  
Month to date cooling degree days 0  
Year to date cooling degree days 1  
Growing Degree Days 2 (Base 50)    
Moisture  
Dew Point 37 °F    
Average Humidity 54    
Maximum Humidity 81    
Minimum Humidity 34    
Precipitation  
Precipitation 0.00 in 0.12 in 2.74 in (2012)
Month to date precipitation 0.93  
Year to date precipitation 6.50  
Sea Level Pressure  
Sea Level Pressure 30.18 in    
Wind  
Wind Speed 2 mph (SE)    
Max Wind Speed 10 mph    
Max Gust Speed -    
Visibility 10 miles    
Events      
T = Trace of Precipitation, MM = Missing Value Source: NWS Daily Summary

Daily Weather History Graph

Daily Weather History Graph

Search for Another Location

Airport:

Trip Planner

Search our weather history database for the weather conditions in past years. The results will help you decide how hot, cold, wet, or windy it might be!

Date:

Astronomy

Mar. 08, 2013 Rise Set
Actual Time 6:38 AM CST 6:20 PM CST
Civil Twilight 6:13 AM CST 6:45 PM CST
Nautical Twilight 5:43 AM CST 7:15 PM CST
Astronomical Twilight 5:14 AM CST 7:44 PM CST
Moon 4:16 AM CST (3/8) 3:21 PM CST (3/8)
Length of Visible Light 12h 32m
Length of Day
11h 42m
Waning Crescent, 11% of the Moon is Illuminated
Mar 8
Waning Crescent
Mar 11
New
Mar 19
First Quarter
Mar 27
Full
Apr 2
Last Quarter

Hourly Weather History & Observations

Time (CST) Temp. Dew Point Humidity Pressure Visibility Wind Dir Wind Speed Gust Speed Precip Events Conditions
12:15 AM 42.8 °F 35.6 °F 76% 30.18 in 10.0 mi Calm Calm - N/A   Clear
12:35 AM 42.8 °F 35.6 °F 76% 30.18 in 10.0 mi Calm Calm - N/A   Clear
12:55 AM 42.8 °F 35.6 °F 76% 30.20 in 10.0 mi Calm Calm - N/A   Clear
1:15 AM 42.8 °F 37.4 °F 81% 30.20 in 10.0 mi Calm Calm - N/A   Clear
1:35 AM 42.8 °F 37.4 °F 81% 30.21 in 10.0 mi Calm Calm - N/A   Clear
1:55 AM 42.8 °F 35.6 °F 76% 30.21 in 10.0 mi Calm Calm - N/A   Clear
2:15 AM 42.8 °F 35.6 °F 76% 30.21 in 10.0 mi Calm Calm - N/A   Clear
2:35 AM 42.8 °F 35.6 °F 76% 30.20 in 10.0 mi Calm Calm - N/A   Clear
2:55 AM 42.8 °F 35.6 °F 76% 30.20 in 10.0 mi Calm Calm - N/A   Clear
3:15 AM 42.8 °F 35.6 °F 76% 30.20 in 10.0 mi Calm Calm - N/A   Clear
3:35 AM 41.0 °F 35.6 °F 81% 30.21 in 10.0 mi Calm Calm - N/A   Clear
3:55 AM 41.0 °F 35.6 °F 81% 30.21 in 10.0 mi Calm Calm - N/A   Clear
4:15 AM 42.8 °F 35.6 °F 76% 30.21 in 10.0 mi Calm Calm - N/A   Clear
4:35 AM 42.8 °F 35.6 °F 76% 30.23 in 10.0 mi Calm Calm - N/A   Clear
4:55 AM 42.8 °F 35.6 °F 76% 30.23 in 10.0 mi Calm Calm - N/A   Clear
5:15 AM 42.8 °F 35.6 °F 76% 30.23 in 10.0 mi Calm Calm - N/A   Clear
5:35 AM 44.6 °F 37.4 °F 76% 30.24 in 10.0 mi Calm Calm - N/A   Clear
5:55 AM 44.6 °F 35.6 °F 71% 30.24 in 10.0 mi Calm Calm - N/A   Clear
6:35 AM 44.6 °F 35.6 °F 71% 30.23 in 10.0 mi Calm Calm - N/A   Clear
6:55 AM 44.6 °F 35.6 °F 71% 30.24 in 10.0 mi Calm Calm - N/A   Clear
7:15 AM 46.4 °F 37.4 °F 71% 30.25 in 10.0 mi Calm Calm - N/A   Clear
7:35 AM 48.2 °F 37.4 °F 66% 30.26 in 10.0 mi Calm Calm - N/A   Clear
7:55 AM 48.2 °F 39.2 °F 71% 30.27 in 10.0 mi Calm Calm - N/A   Clear
8:15 AM 51.8 °F 41.0 °F 67% 30.27 in 10.0 mi Calm Calm - N/A   Clear
8:35 AM 51.8 °F 39.2 °F 62% 30.28 in 10.0 mi Calm Calm - N/A   Clear
8:55 AM 53.6 °F 39.2 °F 58% 30.28 in 10.0 mi East 4.6 mph - N/A   Clear
9:15 AM 53.6 °F 37.4 °F 54% 30.28 in 10.0 mi ENE 5.8 mph - N/A   Clear
9:35 AM 53.6 °F 37.4 °F 54% 30.28 in 10.0 mi East 4.6 mph - N/A   Clear
9:55 AM 55.4 °F 39.2 °F 54% 30.28 in 10.0 mi Calm Calm - N/A   Clear
10:15 AM 55.4 °F 37.4 °F 51% 30.27 in 10.0 mi ENE 5.8 mph - N/A   Clear
10:35 AM 59.0 °F 39.2 °F 48% 30.26 in 10.0 mi ESE 6.9 mph - N/A   Mostly Cloudy
10:55 AM 59.0 °F 39.2 °F 48% 30.26 in 10.0 mi East 4.6 mph - N/A   Overcast
11:15 AM 59.0 °F 37.4 °F 45% 30.27 in 10.0 mi Calm Calm - N/A   Overcast
11:35 AM 60.8 °F 37.4 °F 42% 30.26 in 10.0 mi Calm Calm - N/A   Overcast
11:55 AM 60.8 °F 37.4 °F 42% 30.26 in 10.0 mi SSE 6.9 mph - N/A   Overcast
12:15 PM 60.8 °F 37.4 °F 42% 30.24 in 10.0 mi SSE 9.2 mph - N/A   Overcast
12:35 PM 60.8 °F 37.4 °F 42% 30.22 in 10.0 mi SE 8.1 mph - N/A   Overcast
12:55 PM 62.6 °F 37.4 °F 39% 30.20 in 10.0 mi SE 8.1 mph - N/A   Mostly Cloudy
1:15 PM 62.6 °F 37.4 °F 39% 30.19 in 10.0 mi SE 6.9 mph - N/A   Mostly Cloudy
1:35 PM 62.6 °F 37.4 °F 39% 30.17 in 10.0 mi SSE 3.5 mph - N/A   Mostly Cloudy
1:55 PM 62.6 °F 37.4 °F 39% 30.15 in 10.0 mi Calm Calm - N/A   Mostly Cloudy
2:15 PM 62.6 °F 37.4 °F 39% 30.15 in 10.0 mi SE 3.5 mph - N/A   Overcast
2:35 PM 64.4 °F 35.6 °F 34% 30.14 in 10.0 mi SE 4.6 mph - N/A   Overcast
2:55 PM 64.4 °F 35.6 °F 34% 30.13 in 10.0 mi South 10.4 mph - N/A   Overcast
3:15 PM 64.4 °F 35.6 °F 34% 30.13 in 10.0 mi SE 6.9 mph - N/A   Overcast
3:35 PM 64.4 °F 35.6 °F 34% 30.11 in 10.0 mi SE 8.1 mph - N/A   Mostly Cloudy
3:55 PM 64.4 °F 35.6 °F 34% 30.11 in 10.0 mi SE 4.6 mph - N/A   Mostly Cloudy
4:15 PM 64.4 °F 37.4 °F 37% 30.10 in 10.0 mi ESE 3.5 mph - N/A   Overcast
4:35 PM 64.4 °F 37.4 °F 37% 30.09 in 10.0 mi SE 4.6 mph - N/A   Scattered Clouds
4:55 PM 64.4 °F 37.4 °F 37% 30.09 in 10.0 mi SSE 3.5 mph - N/A   Scattered Clouds
5:15 PM 64.4 °F 35.6 °F 34% 30.09 in 10.0 mi SSE 4.6 mph - N/A   Scattered Clouds
5:35 PM 62.6 °F 37.4 °F 39% 30.10 in 10.0 mi Calm Calm - N/A   Mostly Cloudy
5:55 PM 62.6 °F 35.6 °F 37% 30.11 in 10.0 mi South 5.8 mph - N/A   Overcast
6:15 PM 62.6 °F 35.6 °F 37% 30.11 in 10.0 mi SSE 5.8 mph - N/A   Overcast
6:35 PM 62.6 °F 35.6 °F 37% 30.11 in 10.0 mi SE 3.5 mph - N/A   Overcast
6:55 PM 62.6 °F 35.6 °F 37% 30.10 in 10.0 mi SE 4.6 mph - N/A   Overcast
7:15 PM 60.8 °F 35.6 °F 39% 30.11 in 10.0 mi SE 6.9 mph - N/A   Overcast
7:35 PM 60.8 °F 35.6 °F 39% 30.10 in 10.0 mi ESE 3.5 mph - N/A   Overcast
7:55 PM 60.8 °F 35.6 °F 39% 30.10 in 10.0 mi ESE 4.6 mph - N/A   Overcast
8:15 PM 60.8 °F 37.4 °F 42% 30.10 in 10.0 mi Calm Calm - N/A   Overcast
8:35 PM 60.8 °F 37.4 °F 42% 30.10 in 10.0 mi Calm Calm - N/A   Overcast
8:55 PM 60.8 °F 37.4 °F 42% 30.09 in 10.0 mi Calm Calm - N/A   Overcast
9:15 PM 60.8 °F 39.2 °F 45% 30.10 in 7.0 mi Calm Calm - N/A   Overcast
9:35 PM 60.8 °F 37.4 °F 42% 30.10 in 10.0 mi Calm Calm - N/A   Overcast
9:55 PM 60.8 °F 37.4 °F 42% 30.10 in 10.0 mi Calm Calm - N/A   Overcast
10:15 PM 60.8 °F 39.2 °F 45% 30.09 in 7.0 mi Calm Calm - N/A   Overcast
10:35 PM 60.8 °F 41.0 °F 48% 30.10 in 10.0 mi Calm Calm - N/A   Overcast
10:55 PM 59.0 °F 41.0 °F 51% 30.09 in 10.0 mi Calm Calm - N/A   Overcast
11:15 PM 59.0 °F 42.8 °F 55% 30.09 in 10.0 mi Calm Calm - N/A   Overcast
11:35 PM 59.0 °F 41.0 °F 51% 30.07 in 10.0 mi Calm Calm - N/A   Overcast
11:55 PM 60.8 °F 39.2 °F 45% 30.06 in 10.0 mi Calm Calm - N/A   Overcast